Location: Unnamed Road
(35.9029°N, 51.9749°E)
Time: 10:00:59
(UTC+04:30)

Transit 2A Rocket - All Passes

Search period start: 06 June 2020 00:00
Search period end: 16 June 2020 00:00
Orbit: 585 x 918 km, 66.7° (Epoch: 05 June)

Date Brightness Start Highest point End Pass type
(mag) Time Alt. Az. Time Alt. Az. Time Alt. Az.
06 Jun - 06:13:07 10° N 06:18:43 36° NE 06:24:14 10° ESE daylight
06 Jun - 07:55:50 10° NW 08:01:19 35° WSW 08:06:39 10° S daylight
06 Jun - 20:45:00 10° S 20:49:29 39° ESE 20:54:27 10° NE visible
06 Jun - 22:28:03 10° WSW 22:32:14 25° NW 22:36:45 10° N visible
07 Jun - 05:31:05 10° N 05:35:51 23° NE 05:40:34 10° E daylight
07 Jun - 07:12:54 10° NW 07:18:55 60° WSW 07:24:47 10° S daylight
07 Jun - 20:03:37 10° SSE 20:07:14 21° ESE 20:11:07 10° ENE daylight
07 Jun - 21:44:40 10° SW 21:49:24 42° WNW 21:54:37 10° NNE visible
08 Jun - 04:49:30 10° NNE 04:52:50 15° NE 04:56:08 10° ENE visible
08 Jun - 06:30:14 10° NNW 06:36:23 82° ENE 06:42:23 10° SSE daylight
08 Jun - 08:15:24 10° WNW 08:18:14 14° WSW 08:21:01 10° SW daylight
08 Jun - 19:24:07 10° ESE 19:25:05 10° E 19:26:04 10° E daylight
08 Jun - 21:01:48 10° SSW 21:06:44 76° WNW 21:12:13 10° NNE visible
08 Jun - 22:48:40 10° WNW 22:50:26 11° NW 22:52:13 10° NNW visible
09 Jun - 05:47:49 10° NNW 05:53:44 49° ENE 05:59:33 10° SE daylight
09 Jun - 07:31:13 10° NW 07:36:01 24° WSW 07:40:42 10° SSW daylight
09 Jun - 20:19:25 10° SSW 20:24:13 59° ESE 20:29:35 10° NE daylight
09 Jun - 22:03:45 10° W 22:07:21 19° NW 22:11:10 10° N visible
10 Jun - 05:05:36 10° N 05:10:57 31° NE 05:16:14 10° ESE visible
10 Jun - 06:48:00 10° NW 06:53:42 42° WSW 06:59:15 10° S daylight
10 Jun - 19:37:33 10° S 19:41:52 31° ESE 19:46:35 10° NE daylight
10 Jun - 21:19:57 10° WSW 21:24:24 30° NW 21:29:17 10° N visible
11 Jun - 04:23:41 10° N 04:28:01 20° NE 04:32:20 10° E visible
11 Jun - 06:05:09 10° NNW 06:11:16 72° WSW 06:17:12 10° SSE daylight
11 Jun - 18:56:30 10° SE 18:59:40 17° ESE 19:02:59 10° ENE daylight
11 Jun - 20:36:45 10° SW 20:41:38 52° WNW 20:47:02 10° NNE visible
12 Jun - 03:42:24 10° NNE 03:44:57 13° NE 03:47:29 10° ENE visible
12 Jun - 05:22:34 10° NNW 05:28:42 69° ENE 05:34:39 10° SE daylight
12 Jun - 07:06:59 10° WNW 07:10:41 17° WSW 07:14:19 10° SW daylight
12 Jun - 19:54:03 10° SSW 19:59:01 88° ESE 20:04:34 10° NNE daylight
12 Jun - 21:39:50 10° WNW 21:42:31 14° NW 21:45:19 10° NNW visible
13 Jun - 04:40:13 10° NNW 04:46:00 42° ENE 04:51:40 10° SE visible
13 Jun - 06:23:16 10° NW 06:28:26 29° WSW 06:33:28 10° SSW daylight
13 Jun - 19:11:50 10° S 19:16:34 47° ESE 19:21:48 10° NE daylight
13 Jun - 20:55:29 10° W 20:59:30 22° NW 21:03:48 10° N visible
14 Jun - 03:58:05 10° N 04:03:10 26° NE 04:08:09 10° ESE visible
14 Jun - 05:40:11 10° NW 05:46:05 51° WSW 05:51:48 10° S daylight
14 Jun - 18:30:12 10° SSE 18:34:16 26° ESE 18:38:39 10° NE daylight
14 Jun - 20:11:55 10° WSW 20:16:37 36° NW 20:21:45 10° NNE daylight
15 Jun - 03:16:20 10° N 03:20:11 17° NE 03:24:00 10° E visible
15 Jun - 04:57:26 10° NNW 05:03:36 86° WSW 05:09:33 10° SSE visible
15 Jun - 06:43:53 10° W 06:45:17 11° W 06:46:40 10° WSW daylight
15 Jun - 17:49:39 10° SE 17:52:05 14° ESE 17:54:38 10° ENE daylight
15 Jun - 19:28:54 10° SW 19:33:54 64° WNW 19:39:26 10° NNE daylight
15 Jun - 21:17:20 10° NW 21:17:47 10° NW 21:18:13 10° NW visible
